Content
SEND FEEDBACK

Daily
Averages
Monthly
Summary
Slovakia

ZLOVEN, SLOVAKIA


Home > Europe > Slovakia
Elevation: 1043 feet     Latitude: 48 38N     Longitude: 019 09E

WEATHER
 
SELECT A DAY
Number of Records: 329,019;   Date Range: 7/1/96 - 12/19/14
 
SHARE

PRINT THIS DATA

[ ← Previous Day ]
WEATHER ALMANAC - FEBRUARY 13, 2013
[ Next Day → ]
[ °C ]   °F
Weather ElementAverageHighLow
Temperature31.5 °F37.4 °F (12:30 pm)26.6 °F (12:00 am)
Dewpoint27.7 °F32 °F (1:00 pm)23 °F (12:00 am)
Humidity84.2 %93 % (7:30 am)72 % (2:00 pm)
Barometer29.98 in30.09 in (10:30 pm)29.89 in (12:00 am)
Wind Speed2.4 mph10.4 mph (9:30 pm)
Weather ElementAverage
Visibility5.4 mi
Wind DirectionENE (79.7 °)

Weather ElementTotal
Precipitation---
Heating Degree Days33 (Base 65)
Averaged from 73 records on February 13, 2013
WEATHER CONDITIONS BREAKOUT
WIND DIRECTION BREAKOUT
WEATHER BY HOUR - FEBRUARY 13, 2013
[ °C ]   °F
Local TimeTemperatureDewpointHumidityBarometerVisibilityWind DirectionWind SpeedGust SpeedPrecipitationEventsConditions
12:00 AM26.6 °F23.0 °F86 %29.89 in6.2 miVariable2.3 mphSnowLight Snow
12:30 AM28.4 °F23.0 °F80 %29.89 in6.2 miVariable2.3 mphSnowLight Snow
1:00 AM28.0 °F24.0 °F78 %12.0 miCalmSnowLight Snow
1:00 AM28.4 °F24.8 °F86 %29.89 in6.2 miVariable1.2 mphSnowLight Snow
1:30 AM28.4 °F23.0 °F80 %29.89 in6.2 miVariable1.2 mphSnowLight Snow
2:00 AM28.0 °F23.0 °F74 %12.0 miCalmSnowLight Snow
2:00 AM28.4 °F23.0 °F80 %29.89 in6.2 miVariable1.2 mphSnowLight Snow
2:30 AM28.4 °F23.0 °F80 %29.89 in6.2 miCalmSnowLight Snow
3:00 AM26.6 °F23.0 °F86 %29.89 in6.2 miVariable1.2 mphSnowLight Snow
3:00 AM27.0 °F23.0 °F79 %12.0 mi°2.2 mphSnowLight Snow
3:30 AM26.6 °F23.0 °F86 %29.89 in6.2 miVariable1.2 mphSnowLight Snow
4:00 AM27.0 °F24.0 °F82 %12.0 miCalmSnowLight Snow
4:00 AM26.6 °F23.0 °F86 %29.89 in6.2 miVariable1.2 mphSnowLight Snow
4:30 AM26.6 °F23.0 °F86 %29.92 in6.2 miVariable1.2 mphSnowLight Snow
5:00 AM28.0 °F24.0 °F80 %6.0 mi°2.2 mphSnowLight Snow
5:00 AM28.4 °F24.8 °F86 %29.92 in6.2 miVariable1.2 mphSnowLight Snow
5:30 AM28.4 °F24.8 °F86 %29.92 in6.2 miVariable2.3 mphSnowLight Snow
6:00 AM28.4 °F24.8 °F86 %29.92 in6.2 miVariable1.2 mphOvercast
6:00 AM28.0 °F25.0 °F84 %6.0 miCalmSnowLight Snow
6:30 AM28.4 °F24.8 °F86 %29.92 in6.2 miSSE (150°)1.2 mphSnowLight Snow
7:00 AM28.0 °F26.0 °F86 %4.0 mi°2.2 mphSnowLight Snow
7:00 AM28.4 °F24.8 °F86 %29.95 in3.7 miSSW (210°)1.2 mphSnowLight Snow
7:30 AM28.4 °F26.6 °F93 %29.95 in3.1 miWest (270°)1.2 mphSnowLight Snow
7:34 AM28.4 °F26.6 °F93 %29.95 in1.7 miWest (280°)3.5 mphSnowLight Snow
8:00 AM30.0 °F27.0 °F85 %2.0 miNW (310°)2.2 mphSnowLight Snow
8:00 AM30.2 °F26.6 °F86 %29.95 in2.5 miNW (310°)2.3 mphSnowLight Snow
8:30 AM30.2 °F28.4 °F93 %29.98 in5.0 miCalmSnowLight Snow
9:00 AM32.0 °F28.4 °F87 %29.98 in3.1 miVariable1.2 mphSnowLight Snow
9:00 AM31.0 °F29.0 °F87 %3.0 mi°2.2 mphSnowLight Snow
9:30 AM33.8 °F30.2 °F87 %29.98 in3.7 miVariable1.2 mphSnowLight Snow
9:34 AM33.8 °F30.2 °F87 %29.98 in1.2 miCalmSnowSnow
10:00 AM33.0 °F29.0 °F80 %3.0 miCalmSnowLight Snow
10:00 AM33.8 °F28.4 °F81 %29.98 in3.1 miCalmSnowLight Snow
10:30 AM33.8 °F30.2 °F87 %29.98 in3.1 miWest (260°)2.3 mphSnowLight Snow
11:00 AM34.0 °F30.0 °F78 %3.0 miEast (90°)2.2 mphSnowLight Snow
11:00 AM33.8 °F30.2 °F87 %29.98 in2.8 miEast (90°)1.2 mphSnowLight Snow
11:30 AM35.6 °F30.2 °F81 %29.98 in6.2 miVariable2.3 mphMostly Cloudy
12:00 PM36.0 °F31.0 °F76 %7.0 mi°2.2 mphSnowLight Snow
12:00 PM35.6 °F30.2 °F81 %29.98 in6.2 miVariable1.2 mphOvercast
12:30 PM37.4 °F30.2 °F75 %29.98 in6.2 miVariable2.3 mphOvercast
1:00 PM37.0 °F32.0 °F75 %9.0 mi°2.2 mphPartly Cloudy
1:00 PM37.4 °F32.0 °F81 %29.98 in6.2 miVariable1.2 mphMostly Cloudy
1:30 PM37.4 °F32.0 °F81 %29.98 in6.2 miSW (230°)1.2 mphOvercast
2:00 PM36.0 °F30.0 °F72 %9.0 miESE (110°)2.2 mphOvercast
2:00 PM35.6 °F30.2 °F81 %29.98 in6.2 miVariable2.3 mphOvercast
2:30 PM35.6 °F30.2 °F81 %29.98 in6.2 miCalmOvercast
3:00 PM35.6 °F30.2 °F81 %29.98 in6.2 miNNE (30°)6.9 mphOvercast
3:00 PM36.0 °F31.0 °F74 %9.0 miNNE (30°)6.7 mphOvercast
3:30 PM35.6 °F30.2 °F81 %30.01 in6.2 miENE (60°)4.6 mphOvercast
4:00 PM36.0 °F31.0 °F76 %9.0 miEast (100°)2.2 mphOvercast
4:00 PM37.4 °F32.0 °F81 %30.01 in6.2 miEast (100°)1.2 mphOvercast
4:30 PM35.6 °F30.2 °F81 %30.01 in6.2 miVariable1.2 mphOvercast
5:00 PM34.0 °F31.0 °F82 %9.0 miSouth (180°)4.5 mphOvercast
5:00 PM33.8 °F30.2 °F87 %30.01 in6.2 miSouth (180°)3.5 mphOvercast
5:30 PM33.8 °F30.2 °F87 %30.04 in6.2 miNW (310°)2.3 mphOvercast
6:00 PM33.8 °F30.2 °F87 %30.04 in6.2 miWNW (290°)2.3 mphMostly Cloudy
6:00 PM33.0 °F31.0 °F89 %7.0 miWNW (290°)2.2 mphScattered Clouds
6:30 PM33.8 °F30.2 °F87 %30.04 in6.2 miVariable2.3 mphMostly Cloudy
7:00 PM31.0 °F29.0 °F87 %5.0 miCalmMist
7:00 PM32.0 °F28.4 °F87 %30.04 in5.0 miVariable1.2 mphMostly Cloudy
7:30 PM32.0 °F30.2 °F93 %30.04 in5.0 miEast (90°)3.5 mphMostly Cloudy
8:00 PM31.0 °F29.0 °F87 %3.0 miEast (80°)6.7 mphMist
8:00 PM30.2 °F28.4 °F93 %30.06 in3.1 miEast (80°)6.9 mphMostly Cloudy
8:30 PM32.0 °F28.4 °F87 %30.06 in3.1 miEast (80°)9.2 mphMostly Cloudy
9:00 PM32.0 °F28.4 °F87 %30.06 in3.1 miVariable2.3 mphOvercast
9:00 PM31.0 °F29.0 °F89 %3.0 mi°2.2 mphMist
9:30 PM30.2 °F28.4 °F93 %30.06 in2.8 miEast (80°)10.4 mphOvercast
10:00 PM31.0 °F28.0 °F85 %2.0 mi°2.2 mphMist
10:00 PM30.2 °F28.4 °F93 %30.06 in1.9 miESE (110°)3.5 mphOvercast
10:30 PM30.2 °F28.4 °F93 %30.09 in1.9 miESE (110°)5.8 mphOvercast
11:00 PM30.0 °F27.0 °F85 %2.0 miENE (70°)4.5 mphMist
11:00 PM30.2 °F26.6 °F86 %30.09 in2.2 miENE (70°)5.8 mphOvercast
11:30 PM30.2 °F26.6 °F86 %30.09 inNE (50°)8.1 mphOvercast
Hourly data recorded from LZSL, located miles away from Zloven, Slovakia







STORIES FROM OUR PARTNERS